This demonstration page uses our WeatherBlox Daily Observations layout. Learn more.

Left ArrowRight Arrow

44.8408, -93.29828

Hourly Observations for September 25, 2019

Temp ( °F °C ) Dew Point ( °F °C ) Humidity (%) Winds ( mph kmh ) Pressure ( in mb ) Visibility ( mi km ) Precip ( " mm )
12:53 am 00:53 Mostly Cloudy 66 18.9 59 15 78 78 WSW 7 11 29.58 1002 10 16 0.00 0.00
1:53 am 01:53 Mostly Cloudy 64 17.8 59 15 84 84 WSW 8 13 29.57 1002 10 16 0.00 0.00
2:53 am 02:53 Mostly Clear 63 17.2 57 13.9 81 81 WSW 8 13 29.58 1002 10 16 0.00 0.00
3:53 am 03:53 Clear 63 17.2 54 12.2 73 73 W 10 17 29.59 1002 10 16 0.00 0.00
4:53 am 04:53 Clear 62 16.7 52 11.1 70 70 W 13 20 29.60 1002 10 16 0.00 0.00
5:53 am 05:53 Clear 60 15.6 51 10.6 72 72 WNW 13 20 29.63 1004 10 16 0.00 0.00
6:53 am 06:53 Mostly Clear 58 14.4 50 10 75 75 WNW 12 19 29.67 1005 10 16 0.00 0.00
7:53 am 07:53 Mostly Sunny 59 15 50 10 72 72 WNW 14 22 29.70 1006 10 16 0.00 0.00
8:53 am 08:53 Mostly Sunny 61 16.1 50 10 67 67 WNW 13 20 29.72 1006 10 16 0.00 0.00
9:53 am 09:53 Mostly Sunny 63 17.2 48 8.9 58 58 WNW 15 24 29.74 1007 10 16 0.00 0.00
10:53 am 10:53 Mostly Sunny 67 19.4 47 8.3 49 49 WNW 15 24 29.75 1008 10 16 0.00 0.00
11:53 am 11:53 Mostly Sunny 68 20 47 8.3 47 47 W 14 22 29.76 1008 10 16 0.00 0.00
12:53 pm 12:53 Mostly Cloudy 69 20.6 45 7.2 42 42 W 20 31 29.75 1008 10 16 0.00 0.00
1:53 pm 13:53 Mostly Cloudy 68 20 42 5.6 39 39 W 21 33 29.75 1007 10 16 0.00 0.00
2:53 pm 14:53 Mostly Cloudy 68 20 42 5.6 39 39 WNW 16 26 29.74 1007 10 16 0.00 0.00
3:53 pm 15:53 Mostly Cloudy 68 20 41 5 38 38 W 17 28 29.74 1007 10 16 0.00 0.00
4:53 pm 16:53 Partly Cloudy 68 20 40 4.4 36 36 WNW 16 26 29.75 1007 10 16 0.00 0.00
5:33 pm 17:33 Partly Cloudy 67 19.4 38 3.3 35 35 W 22 35 29.74 1007 10 16 0.00 0.00
5:53 pm 17:53 Partly Cloudy 66 18.9 40 4.4 39 39 WNW 16 26 29.76 1008 10 16 0.00 0.00
6:53 pm 18:53 Partly Cloudy 64 17.8 39 3.9 40 40 W 14 22 29.78 1008 10 16 0.00 0.00
7:53 pm 19:53 Mostly Clear 62 16.7 42 5.6 48 48 W 10 17 29.80 1009 10 16 0.00 0.00
8:53 pm 20:53 Clear 61 16.1 41 5 48 48 W 12 19 29.84 1011 10 16 0.00 0.00
9:53 pm 21:53 Mostly Clear 59 15 41 5 51 51 W 8 13 29.85 1011 10 16 0.00 0.00
10:53 pm 22:53 Clear 57 13.9 43 6.1 60 60 WSW 9 15 29.87 1011 10 16 0.00 0.00
11:53 pm 23:53 Clear 56 13.3 42 5.6 60 60 WSW 8 13 29.87 1012 10 16 0.00 0.00

Powered by AerisWeather